CW7625 Weather Reports


Display with metric or nautical units.
time (UTC)temp
F
wind
direction
speed
MPH
gust
MPH
rain 1hr
in
rain 24hr
in
rain mn
in
humidity
%
barometer
mb
20260507010112 56 57 3.0 3.0 0.00 0.23 0.23 89 1013.1
20260507005111 56 57 3.0 4.0 0.00 0.23 0.23 89 1013.3
20260507004111 56 57 2.0 4.0 0.00 0.23 0.23 89 1013.2
20260507002112 56 44 3.0 6.0 0.00 0.23 0.23 89 1013.0
20260507001111 56 41 2.0 6.0 0.00 0.23 0.23 89 1013.0
20260507000111 56 74 3.0 7.0 0.00 0.23 0.23 89 1013.0
20260506235111 56 69 4.0 6.0 0.00 0.23 0.23 89 1012.7
20260506234112 56 48 4.0 7.0 0.00 0.23 0.23 89 1012.2
20260506233112 56 69 2.0 7.0 0.00 0.23 0.23 89 1012.0
20260506232112 56 22 4.0 7.0 0.00 0.23 0.23 89 1012.4
20260506231111 56 46 2.0 4.0 0.00 0.23 0.23 89 1012.6
20260506230112 56 69 2.0 5.0 0.00 0.23 0.23 89 1012.7
20260506225112 56 62 2.0 6.0 0.00 0.23 0.23 89 1012.6
20260506224042 56 57 2.0 7.0 0.00 0.23 0.23 88 1012.6
20260506223112 56 51 3.0 6.0 0.00 0.23 0.23 88 1012.3
20260506222112 56 24 5.0 9.0 0.00 0.23 0.23 88 1012.1
20260506221042 56 81 5.0 7.0 0.00 0.23 0.23 87 1012.2
20260506220112 56 87 1.0 7.0 0.00 0.23 0.23 88 1012.5
20260506215112 56 41 4.0 5.0 0.00 0.23 0.23 88 1012.6
20260506214112 56 28 2.0 6.0 0.00 0.23 0.23 89 1012.5
20260506213112 56 92 6.0 9.0 0.00 0.23 0.23 89 1012.2
20260506212042 56 56 2.0 11.0 0.00 0.23 0.23 89 1012.0
20260506211112 55 52 4.0 11.0 0.00 0.23 0.23 89 1011.7
20260506210120 55 15 8.0 12.0 0.00 0.23 0.23 89 1011.7
20260506205112 55 37 2.0 10.0 0.00 0.23 0.23 90 1011.3
20260506204042 55 51 9.0 9.0 0.00 0.23 0.23 89 1011.3
20260506203112 55 78 7.0 8.0 0.00 0.23 0.23 89 1012.0
20260506202112 55 32 5.0 9.0 0.00 0.23 0.23 89 1012.0
20260506201112 56 92 3.0 12.0 0.00 0.23 0.23 89 1012.1
20260506200112 56 68 3.0 11.0 0.00 0.23 0.23 89 1011.2
20260506195042 56 58 4.0 12.0 0.00 0.23 0.23 89 1011.4
20260506193112 56 360 14.0 15.0 0.00 0.23 0.23 89 1010.1
20260506192112 56 79 4.0 12.0 0.00 0.23 0.23 89 1011.7
20260506191112 57 109 7.0 12.0 0.00 0.23 0.23 90 1011.0
20260506190112 56 59 11.0 14.0 0.00 0.23 0.23 91 1010.8
20260506185112 56 74 4.0 9.0 0.00 0.23 0.23 91 1011.4
20260506184112 56 83 5.0 11.0 0.02 0.23 0.23 91 1011.1
20260506183112 56 55 5.0 10.0 0.04 0.23 0.23 91 1011.0
20260506182042 56 46 1.0 10.0 0.08 0.23 0.23 91 1012.0
20260506181112 56 85 5.0 11.0 0.14 0.23 0.23 91 1011.7
20260506180112 56 74 2.0 8.0 0.14 0.23 0.23 92 1011.6
20260506175112 56 74 7.0 12.0 0.14 0.23 0.23 91 1011.4
20260506174042 56 70 6.0 9.0 0.14 0.21 0.21 91 1012.5
20260506173112 56 65 1.0 10.0 0.13 0.19 0.19 91 1014.2
20260506170112 57 69 4.0 7.0 0.07 0.09 0.09 91 1013.1
20260506165042 57 69 5.0 8.0 0.07 0.09 0.09 91 1013.0
20260506164113 57 84 3.0 8.0 0.05 0.07 0.07 91 1012.5
20260506163113 58 77 3.0 8.0 0.05 0.06 0.06 91 1013.0
20260506162042 58 49 2.0 11.0 0.01 0.02 0.02 92 1012.2
20260506161113 58 88 4.0 12.0 0.01 0.02 0.02 91 1011.9
20260506160112 58 57 4.0 8.0 0.01 0.02 0.02 91 1012.4
20260506155112 58 53 4.0 8.0 0.01 0.02 0.02 91 1011.8
20260506154042 59 66 4.0 7.0 0.01 0.02 0.02 91 1012.3
20260506153112 58 61 3.0 5.0 0.01 0.01 0.01 91 1012.0
20260506151042 59 71 0.0 5.0 0.01 0.01 0.01 91 1011.4
20260506145113 58 63 3.0 9.0 0.01 0.01 0.01 91 1011.1
20260506144043 59 67 4.0 4.0 0.01 0.01 0.01 91 1011.2
20260506141042 58 290 1.0 4.0 0.00 0.00 0.00 91 1010.8
20260506135043 58 294 0.0 3.0 0.00 0.00 0.00 90 1010.8
20260506134043 58 294 1.0 2.0 0.00 0.00 0.00 90 1010.5
20260506133043 58 294 0.0 3.0 0.00 0.00 0.00 90 1010.5
20260506131113 58 291 0.0 3.0 0.00 0.00 0.00 89 1010.5
20260506130043 58 292 2.0 7.0 0.00 0.00 0.00 88 1010.3
20260506125043 59 286 1.0 4.0 0.00 0.00 0.00 87 1010.0
20260506124043 59 293 2.0 5.0 0.00 0.00 0.00 86 1009.9
20260506123043 59 291 0.0 5.0 0.00 0.00 0.00 86 1009.7
20260506122043 59 288 2.0 4.0 0.00 0.00 0.00 86 1009.7
20260506121043 59 294 1.0 4.0 0.00 0.00 0.00 86 1009.4
20260506120043 59 322 0.0 4.0 0.00 0.00 0.00 86 1009.0
20260506115043 59 232 2.0 3.0 0.00 0.00 0.00 86 1009.0
20260506114043 59 232 0.0 4.0 0.00 0.00 0.00 86 1008.6
20260506112043 59 299 0.0 5.0 0.00 0.00 0.00 85 1008.3
20260506111043 60 277 2.0 4.0 0.00 0.00 0.00 84 1008.2
20260506110113 60 277 0.0 4.0 0.00 0.00 0.00 84 1008.0
20260506105043 60 277 1.0 4.0 0.00 0.00 0.00 83 1007.9
20260506104043 60 259 1.0 7.0 0.00 0.00 0.00 84 1008.0
20260506103043 60 289 1.0 7.0 0.00 0.00 0.00 83 1007.5
20260506102043 60 222 3.0 4.0 0.00 0.00 0.00 83 1007.3
20260506101043 60 279 0.0 4.0 0.00 0.00 0.00 83 1007.3
20260506100113 60 262 0.0 3.0 0.00 0.00 0.00 83 1007.1
20260506095113 61 294 0.0 4.0 0.00 0.00 0.00 83 1007.0
20260506094113 61 288 0.0 5.0 0.00 0.00 0.00 83 1006.9
20260506093113 61 287 3.0 6.0 0.00 0.00 0.00 83 1006.8
20260506092043 61 215 1.0 3.0 0.00 0.00 0.00 83 1006.8
20260506091043 61 232 1.0 4.0 0.00 0.00 0.00 83 1006.9
20260506090043 61 231 4.0 4.0 0.00 0.00 0.00 83 1006.7
20260506085043 61 231 0.0 2.0 0.00 0.00 0.00 83 1006.6
20260506084043 61 231 0.0 3.0 0.00 0.00 0.00 83 1006.5
20260506083043 61 230 0.0 4.0 0.00 0.00 0.00 83 1006.2
20260506082043 62 284 1.0 3.0 0.00 0.00 0.00 83 1006.1
20260506080113 62 298 1.0 5.0 0.00 0.00 0.00 83 1006.1
20260506073043 62 290 1.0 7.0 0.00 0.00 0.00 81 1006.4
20260506072044 62 282 3.0 7.0 0.00 0.00 0.00 81 1006.4
20260506071043 62 296 1.0 4.0 0.00 0.00 0.00 81 1006.4
20260506062044 65 218 1.0 5.0 0.00 0.00 0.00 82 1005.4
20260506061044 65 283 1.0 7.0 0.00 0.00 0.00 82 1005.5
20260506051043 67 272 1.0 7.0 0.00 0.00 0.00 84 1005.4
20260506045113 68 230 2.0 3.0 0.00 0.00 0.00 83 1005.2
20260506044114 68 291 0.0 8.0 0.00 0.00 0.00 83 1005.3
20260506043114 69 272 1.0 7.0 0.00 0.00 0.00 83 1005.0
20260506042113 69 284 3.0 7.0 0.00 0.00 0.00 82 1004.8
20260506041114 70 211 1.0 7.0 0.00 0.00 0.00 82 1005.1
20260506040113 71 281 3.0 7.0 0.00 0.00 0.00 82 1005.0
20260506035114 72 279 3.0 7.0 0.00 0.00 0.00 82 1004.4
20260506034114 74 223 0.0 7.0 0.00 0.00 0.00 84 1004.6
20260506033113 74 295 3.0 5.0 0.00 0.00 0.00 89 1004.3
20260506031044 73 246 0.0 0.0 0.00 0.00 0.00 88 1003.2
20260506030114 74 246 0.0 1.0 0.00 0.00 0.00 88 1003.8
20260506025114 74 246 0.0 0.0 0.00 0.00 0.00 88 1003.6
20260506024044 74 246 0.0 0.0 0.00 0.00 0.00 88 1003.6
20260506023044 74 246 0.0 1.0 0.00 0.00 0.00 88 1003.5
20260506022114 75 246 0.0 1.0 0.00 0.00 0.00 87 1002.6
20260506021044 75 246 0.0 1.0 0.00 0.00 0.00 87 1003.0
20260506020114 75 246 0.0 1.0 0.00 0.00 0.00 86 1002.9
20260506015114 75 246 0.0 2.0 0.00 0.00 0.00 86 1002.9
20260506013044 76 246 0.0 1.0 0.00 0.00 0.00 86 1002.7
20260506012114 76 246 0.0 1.0 0.00 0.00 0.00 86 1002.5
20260506011044 76 246 0.0 2.0 0.00 0.00 0.00 85 1002.6